TimeCST,TemperatureF,Dew PointF,Humidity,Sea Level PressureIn,VisibilityMPH,Wind Direction,Wind SpeedMPH,Gust SpeedMPH,PrecipitationIn,Events,Conditions,WindDirDegrees,DateUTC
12:15 AM,61.7,61.7,100,30.13,4.0,South,3.5,-,N/A,,Mostly Cloudy,170,2014-02-18 06:15:00
12:35 AM,61.7,61.7,100,30.13,4.0,South,3.5,-,N/A,,Overcast,180,2014-02-18 06:35:00
12:55 AM,61.9,61.9,100,30.12,5.0,South,4.6,-,N/A,,Mostly Cloudy,190,2014-02-18 06:55:00
1:15 AM,61.7,61.7,100,30.12,4.0,South,4.6,-,N/A,,Scattered Clouds,190,2014-02-18 07:15:00
1:35 AM,62.6,62.6,100,30.12,5.0,SSW,4.6,-,N/A,,Mostly Cloudy,200,2014-02-18 07:35:00
1:55 AM,63.5,63.5,100,30.11,5.0,South,5.8,-,N/A,,Overcast,190,2014-02-18 07:55:00
2:15 AM,63.5,63.5,100,30.11,0.5,SSW,6.9,-,N/A,Fog,Fog,210,2014-02-18 08:15:00
2:35 AM,63.1,63.1,100,30.11,0.5,SSW,6.9,-,N/A,Fog,Fog,210,2014-02-18 08:35:00
2:55 AM,63.0,63.0,100,30.10,0.8,SSW,8.1,-,N/A,,Overcast,210,2014-02-18 08:55:00
3:15 AM,63.0,63.0,100,30.10,0.2,SSW,8.1,-,N/A,Fog,Fog,200,2014-02-18 09:15:00
3:35 AM,63.0,63.0,100,30.10,0.2,South,8.1,-,N/A,Fog,Fog,190,2014-02-18 09:35:00
3:55 AM,62.8,62.8,100,30.10,0.2,SSW,5.8,-,N/A,,Light Drizzle,200,2014-02-18 09:55:00
4:15 AM,62.8,62.8,100,30.09,0.2,South,5.8,-,N/A,,Light Drizzle,190,2014-02-18 10:15:00
4:35 AM,62.6,62.6,100,30.09,0.2,South,5.8,-,N/A,,Light Drizzle,190,2014-02-18 10:35:00
4:55 AM,62.6,62.6,100,30.10,0.2,South,5.8,-,N/A,Rain,Light Rain,190,2014-02-18 10:55:00
5:15 AM,62.2,62.2,100,30.10,0.2,SSW,11.5,-,N/A,Fog,Fog,200,2014-02-18 11:15:00
5:35 AM,61.9,61.9,100,30.10,2.0,SSW,9.2,-,N/A,,Overcast,200,2014-02-18 11:35:00
5:55 AM,61.3,61.3,100,30.11,0.8,SSW,10.4,-,N/A,,Overcast,200,2014-02-18 11:55:00
6:00 AM,62.6,62.6,100,30.11,1.0,SSW,11.5,-,N/A,,Overcast,200,2014-02-18 12:00:00
6:50 AM,60.8,60.8,100,30.11,0.2,SSW,11.5,-,N/A,Fog,Fog,200,2014-02-18 12:50:00
8:45 AM,62.6,62.6,100,30.13,0.2,South,6.9,-,N/A,Fog,Fog,170,2014-02-18 14:45:00
11:50 AM,71.6,64.4,78,30.11,10.0,South,4.6,-,N/A,,Mostly Cloudy,180,2014-02-18 17:50:00
1:50 PM,75.2,62.6,65,30.06,10.0,SSW,16.1,20.7,N/A,,Mostly Cloudy,200,2014-02-18 19:50:00
2:50 PM,73.4,62.6,69,30.05,10.0,SSW,16.1,20.7,N/A,,Mostly Cloudy,200,2014-02-18 20:50:00
3:45 PM,73.4,62.6,69,30.04,10.0,SSW,16.1,20.7,N/A,,Scattered Clouds,200,2014-02-18 21:45:00
4:55 PM,71.6,60.8,69,30.03,10.0,South,13.8,19.6,N/A,,Scattered Clouds,180,2014-02-18 22:55:00
8:05 PM,64.4,64.4,100,30.03,1.5,South,8.1,-,N/A,,Overcast,170,2014-02-19 02:05:00
9:50 PM,64.4,64.4,100,30.04,1.0,South,10.4,-,N/A,,Overcast,180,2014-02-19 03:50:00
10:15 PM,64.6,64.6,100,30.04,0.8,South,11.5,-,N/A,,Overcast,170,2014-02-19 04:15:00
10:35 PM,64.8,64.8,100,30.03,0.8,South,11.5,16.1,N/A,,Overcast,180,2014-02-19 04:35:00
10:55 PM,64.8,64.8,100,30.03,3.0,South,12.7,-,N/A,,Overcast,180,2014-02-19 04:55:00
11:15 PM,64.8,64.8,100,30.03,1.2,South,11.5,-,N/A,,Overcast,180,2014-02-19 05:15:00
11:55 PM,64.9,64.9,100,30.03,4.0,South,10.4,-,N/A,,Overcast,190,2014-02-19 05:55:00